Regional Weather Roundup
Issued by NWS Charleston, SC

Current Version | Previous Version | Graphics & Text | Print | Product List | Glossary On
Versions: 1 2 3 4 5 6 7 8 9 10 11 12 13 14 15 16 17 18 19 20 21 22 23 24 25 26 27 28 29 30 31 32 33 34 35 36 37 38 39 40 41 42 43 44 45 46 47 48 49 50
000
ASUS42 KCHS 011610
RWRCHS

REGIONAL WEATHER ROUNDUP
NATIONAL WEATHER SERVICE CHARLESTON SC
1200 PM EDT FRI AUG 01 2014

NOTE: "FAIR" INDICATES FEW OR NO CLOUDS BELOW 12,000 FEET WITH NO
SIGNIFICANT WEATHER AND/OR OBSTRUCTIONS TO VISIBILITY.

NOT ALL STATIONS ARE QUALITY CONTROLLED BY THE NATIONAL
WEATHER SERVICE. USE DATA WITH CAUTION...ESPECIALLY
DEWPOINT OBSERVATIONS.

SCZ027-030-031-034>040-042>050-011700-
...SOUTH CAROLINA...

CITY           SKY/WX    TMP DP  RH WIND       PRES   REMARKS
N CHARLESTON   PTSUNNY   89  72  56 E6        30.02S HX  96
WATERFRONT PRK   N/A     82 N/A N/A E7          N/A
FORT JOHNSON   NOT AVBL
MOUNT PLEASANT FAIR      82  75  78 E6        30.02F
JOHNS ISLAND   MOSUNNY   82  70  65 CALM      30.03R
PINOPOLIS        N/A     88  75  66 N3        29.97R HX  97
MONCKS CORNER  NOT AVBL
SUMMERVILLE    PTSUNNY   88  72  58 N6        30.03S HX  94
BEAUFORT MCAS  PTSUNNY   86  75  69 NE5       30.02R HX  95
BEAUFORT ARPT  FAIR      82  77  83 NE7       30.01S HX  91
HILTON HEAD IS MOSUNNY   81  73  78 N6        30.03R
GEORGETOWN     NOT AVBL
WALTERBORO     NOT AVBL
ORANGEBURG     CLOUDY    78  71  79 N8        30.05S
BARNWELL       CLOUDY    79  72  78 NE6       30.06S
AIKEN          FAIR      77  73  88 N6        30.09F
MANNING        PTSUNNY   86  75  70 NE5       30.03S HX  95
KINGSTREE      NOT AVBL
COLUMBIA       PTSUNNY   82  69  64 CALM      30.05F
SUMTER         PTSUNNY   77  74  89 NE6       30.04S
FLORENCE       CLOUDY    81  73  76 E8        30.05R
MYRTLE BEACH   LGT RAIN  79  73  83 S17       30.03F
N MYRTLE BEACH CLOUDY    80  73  79 S10       30.04F

$$

GAZ063-065-086>088-099>101-113>116-118-119-134-136>141-150-011700-
...GEORGIA...

CITY           SKY/WX    TMP DP  RH WIND       PRES   REMARKS
SAVANNAH ARPT  PTSUNNY   87  76  69 NE8       30.01F HX  97
HUNTER AAF     PTSUNNY   86  77  72 N6        29.99S HX  97
FORT STEWART   PTSUNNY   84  76  75 NE9       30.00S HX  93
STATESBORO     NOT AVBL
SYLVANIA       CLOUDY    79  76  90 N3        30.04S
CLAXTON        CLOUDY    81  79  94 N3        30.02S FOG
THOMSON        CLOUDY    71  71 100 N7        30.11F
AUGUSTA-BUSH   CLOUDY    78  69  73 N6        30.05F
AUGUSTA-DANIEL CLOUDY    75  68  78 N7        30.07F
SWAINSBORO     CLOUDY    77  77 100 NE6       30.05S
VIDALIA          N/A     81  75  83 E6        30.03S
ALMA           PTSUNNY   88  74  63 NE5       29.99F HX  96
WAYCROSS       PTSUNNY   89  78  68 CALM      29.99S HX 103
JESUP          PTSUNNY   90  77  66 N3        29.99F HX 102
BRUNSWICK      PTSUNNY   88  72  58 CALM      30.00S HX  94
SAINT SIMONS   PTSUNNY   86  74  67 CALM      29.99S HX  94

$$

SCZ027-028-034-036>038-045-046-048>050-GAZ119-141-011700-
...LAKE AND SUPPLEMENTAL COASTAL OBSERVATIONS...

STATION/POSITION TIME  TEMP    WIND        PRES    WAVE   SWELL
                       AIR SEA DIR/SP/G            HT/PER HT/PER/DIR
                 (UTC) (F)     (DEG/KT/KT) (MB)    (FT/S) (FT/S/D)
UPR LAKE MARION  NOT AVBL
WINYAH BAY       1500   80     140/  7     1016.0S
LAKE MURRAY      1500   76      10/  1/  4 1017.6S
ACE BASIN NERRS  1500   85      20/  3     1016.0F
FORT PULASKI     1600   81      20/  9/ 11 1016.5R
SAPELO ISLAND    1500   85      50/  4     1016.0S

$$

ANZ835-935-AMZ111-154-330-350-352-354-374-450-454-472-011700-
...C-MAN AND BUOY OBSERVATIONS...

STATION/POSITION TIME  TEMP    WIND        PRES    WAVE   SWELL
                       AIR SEA DIR/SP/G            HT/PER HT/PER/DIR
                 (UTC) (F)     (DEG/KT/KT) (MB)    (FT/S) (FT/S/D)
FOLLY BEACH CMAN 1500   79     160/  1/  2 1017.2R
BUOY 41004       1600   75 82  130/  8/ 10 1016.9F   4/ 5   3/ 5
BUOY 41008       1600   82 85   10/  4/  6 1015.8R   3/ 5   2/140/ 5
5E ST. MARYS GA  1600      86                N/A     3/ 5
FRYING PAN BUOY  NOT AVBL
BUOY 41025       1600          VRB 14/ 16  1019.2R   4/ 7   2/110/ 7
CAPE LOOKOUT NC  1500   76     140/  9/ 10 1019.4R
BUOY 41002       1538   82 81  160/ 14/ 16 1019.9S   4/ 6   2/110/ 7
BUOY 41010       1600   83 84  160/ 10/ 12 1016.8F   2/ 4   2/ 70/ 8
BUOY 41012       NOT AVBL
ST AUGUSTINE FL  1600   82     130/  8/  9 1016.2F
CAPERS NEARSHORE 1500   80      80/  6/  8   N/A
FRIPP NEARSHORE  NOT AVBL


$$


USA.gov is the U.S. government's official web portal to all federal, state and local government web resources and services.